Flag for Russia Weather past 2 weeks in Kaliningrad, Russia

Now
39 °F

Overcast.


Feels Like: 35 °F
Forecast: 42 / 50 °F
Wind: 6 mph from West

Location: Kaliningrad/Khrabrovo Airport

Current Time: Mar 7, 2015 at 6:58:23 AM

Latest Report: Mar 7, 2015 at 6:00 AM


Visibility: 4 mi

Pressure: 30.39 "Hg

Humidity: 93%

Dew point: 37 °F

Location of KaliningradLocation

Historic Weather in Kaliningrad — Graph

°F

Kaliningrad temperature yesterday

Maximum temperature yesterday: 39 °F (at 11:00 AM)
Minimum temperature yesterday: 28 °F (at 3:00 AM)
Average temperature yesterday: 36 °F

Past Weeks' High & Low Weather Summary

 TemperatureHumidityPressure
High48 °F (Feb 21, 1:00 PM)100% (Feb 23, 4:00 AM)30.48 "Hg (Feb 23, 4:00 AM)
Low27 °F (Feb 23, 6:30 AM)40% (Feb 21, 1:00 PM)29.33 "Hg (Mar 2, 6:00 PM)
Average38 °F85%29.90 "Hg
* Reported Feb 20 5:30 AM — Mar 7 5:30 AM, Kaliningrad, Weather by CustomWeather, © 2015

Note: Actual official high and low records may vary slightly from our data, if they occured in-between our weather recording intervals... More about our weather records

Advertising

Kaliningrad weather history for previous 24 hours

 ConditionsComfort  
Time TempWeatherWind HumidityBarometerVisibility
5:30 AM
Sat, Mar 7
39 °FOvercast.3 mph93%30.39 "Hg4 mi
5:00 AM41 °FMostly cloudy.3 mph87%30.39 "Hg4 mi
4:00 AM41 °FMostly cloudy.6 mph93%30.36 "Hg4 mi
3:00 AM41 °FFog.8 mph93%30.36 "Hg3 mi
2:00 AM41 °FDrizzle. Fog.6 mph93%30.36 "Hg3 mi
1:00 AM41 °FDrizzle. Fog.8 mph93%30.36 "Hg2 mi
12:00 AM39 °FFog.10 mph100%30.36 "Hg3 mi
11:30 PM
Fri, Mar 6
39 °FFog.10 mph93%30.36 "Hg3 mi
11:00 PM39 °FLow clouds.13 mph93%30.36 "Hg4 mi
10:30 PM39 °FFog.10 mph93%30.36 "Hg3 mi
10:00 PM39 °FFog.13 mph93%30.36 "Hg3 mi
9:30 PM39 °FSprinkles. Fog.13 mph93%30.36 "Hg3 mi
9:00 PM39 °FLight rain. Overcast.13 mph87%30.36 "Hg4 mi
8:30 PM39 °FLight rain. Overcast.10 mph87%30.36 "Hg6 mi
8:00 PM39 °FLight rain. Overcast.10 mph87%30.36 "Hg6 mi
7:30 PM39 °FLight rain. Mostly cloudy.10 mph81%30.39 "Hg6 mi
7:00 PM39 °FMore clouds than sun.10 mph81%30.39 "HgN/A
6:30 PM39 °FLight rain. More clouds than sun.10 mph81%30.39 "HgN/A
6:00 PM39 °FLight rain. More clouds than sun.10 mph81%30.39 "HgN/A
5:30 PM39 °FMore clouds than sun.10 mph81%30.39 "HgN/A
5:00 PM39 °FSunny.10 mph75%30.39 "Hg10 mi
4:30 PM39 °FPassing clouds.10 mph75%30.39 "HgN/A
4:00 PM39 °FSunny.13 mph70%30.39 "Hg10 mi
3:30 PM39 °FSunny.13 mph70%30.39 "Hg10 mi
3:00 PM39 °FSunny.15 mph70%30.42 "Hg10 mi
2:30 PM39 °FSunny.10 mph65%30.42 "Hg10 mi
2:00 PM39 °FSunny.13 mph65%30.42 "Hg10 mi
1:30 PM39 °FSunny.13 mph65%30.42 "Hg10 mi
1:00 PM39 °FPassing clouds.10 mph61%30.42 "HgN/A
12:30 PM39 °FSunny.10 mph65%30.45 "Hg10 mi
12:00 PM39 °FPassing clouds.10 mph70%30.45 "HgN/A
11:30 AM37 °FSunny.13 mph75%30.45 "Hg10 mi
11:00 AM39 °FSunny.13 mph70%30.45 "Hg10 mi
10:30 AM37 °FSunny.13 mph75%30.45 "Hg10 mi
10:00 AM36 °FSunny.13 mph81%30.48 "Hg10 mi
9:30 AM36 °FSunny.10 mph81%30.45 "Hg10 mi
9:00 AM34 °FPassing clouds.6 mph87%30.45 "HgN/A
8:30 AM32 °FPassing clouds.6 mph93%30.45 "HgN/A
8:00 AM30 °FPassing clouds.6 mph93%30.48 "HgN/A
7:30 AM28 °FPassing clouds.3 mph100%30.48 "HgN/A
7:00 AM28 °FPassing clouds.1 mph93%30.48 "HgN/A
6:30 AM28 °FPartly cloudy.1 mph93%30.48 "HgN/A
6:00 AM30 °FMostly cloudy.3 mph93%30.48 "HgN/A
Weather by CustomWeather, © 2015

See weather overviewHow to use our weather pages